Location: Branche des Alpilles
(43.6087°N, 4.6976°E)
Time: 04:55:14
(UTC+00:00)

CENTAUR R/B - Pass Details

Date: 30 November 2020
Orbit: 750 x 1438 km, 63.4° (Epoch: 11 January)

Event Time Altitude Azimuth Distance (km) Brightness Sun altitude
Rises 16:59:23 0° 152° (SSE) 3,348 5.2 -9.6°
Reaches altitude 10° 17:03:38 10° 120° (ESE) 2,551 4.3 -10.3°
Maximum altitude 17:05:29 12° 101° (E) 2,506 4.1 -10.6°
Enters shadow 17:06:27 11° 92° (E) 2,570 4.1 -10.8°
